FW1436 Weather Reports


time (UTC)temp
F
wind
direction
speed
knots
gust
knots
rain 1hr
in
rain 24hr
in
rain mn
in
humidity
%
barometer
mb
20260903181521 96 357 0.9 7.0 0.00 0.00 0.00 19 1015.9
20260903180030 97 331 1.7 9.6 0.00 0.00 0.00 18 1015.9
20260903174521 98 100 0.9 4.3 0.00 0.00 0.00 20 1015.5
20260903173018 98 153 0.9 5.2 0.00 0.00 0.00 20 1015.6
20260903171518 99 244 0.9 6.1 0.00 0.00 0.00 20 1015.7
20260903170020 99 336 0.9 4.3 0.00 0.00 0.00 19 1015.8
20260903164515 99 95 2.6 8.7 0.00 0.00 0.00 19 1015.7
20260903163013 99 112 2.6 7.0 0.00 0.00 0.00 18 1015.7
20260903161513 99 250 2.6 5.2 0.00 0.00 0.00 19 1015.6
20260903160032 100 253 2.6 8.7 0.00 0.00 0.00 18 1015.7
20260903154517 100 288 2.6 7.8 0.00 0.00 0.00 18 1015.7
20260903153010 100 286 1.7 8.7 0.00 0.00 0.00 18 1015.8
20260903151508 99 231 0.9 7.0 0.00 0.00 0.00 19 1015.8
20260903150018 99 253 1.7 7.8 0.00 0.00 0.00 19 1016.0
20260903144510 99 296 4.3 7.8 0.00 0.00 0.00 18 1016.3
20260903143011 99 257 1.7 7.0 0.00 0.00 0.00 19 1016.3
20260903141501 98 283 1.7 7.0 0.00 0.00 0.00 20 1016.4
20260903140110 97 281 1.7 8.7 0.00 0.00 0.00 20 1016.5
20260903134559 97 290 2.6 12.2 0.00 0.00 0.00 21 1016.9
20260903133101 97 307 3.5 7.8 0.00 0.00 0.00 20 1016.9
20260903131553 97 242 3.5 10.4 0.00 0.00 0.00 21 1017.1
20260903130051 96 271 3.5 7.8 0.00 0.00 0.00 21 1017.2
20260903124553 96 146 1.7 10.4 0.00 0.00 0.00 22 1017.3
20260903123048 95 314 2.6 9.6 0.00 0.00 0.00 22 1017.4
20260903121548 95 289 3.5 9.6 0.00 0.00 0.00 24 1017.5
20260903120059 94 199 2.6 7.8 0.00 0.00 0.00 23 1017.7
20260903114543 94 152 1.7 5.2 0.00 0.00 0.00 23 1017.8
20260903113041 93 214 0.9 6.1 0.00 0.00 0.00 26 1018.1
20260903111539 92 306 0.0 4.3 0.00 0.00 0.00 29 1018.2
20260903110034 91 237 0.0 6.1 0.00 0.00 0.00 31 1018.3
20260903104531 89 109 0.9 4.3 0.00 0.00 0.00 35 1018.6
20260903103028 87 117 1.7 4.3 0.00 0.00 0.00 37 1018.7
20260903101531 85 237 0.9 5.2 0.00 0.00 0.00 39 1018.9
20260903100022 84 113 0.9 5.2 0.00 0.00 0.00 40 1019.0
20260903094520 83 74 3.5 5.2 0.00 0.00 0.00 41 1019.0
20260903093021 83 143 0.0 4.3 0.00 0.00 0.00 42 1019.1
20260903091517 83 151 0.9 3.5 0.00 0.00 0.00 42 1019.2
20260903090026 81 104 0.0 2.6 0.00 0.00 0.00 43 1019.2
20260903084512 80 151 0.9 4.3 0.00 0.00 0.00 43 1019.1
20260903083009 79 79 1.7 4.3 0.00 0.00 0.00 45 1019.0
20260903081507 78 103 0.9 4.3 0.00 0.00 0.00 43 1019.1
20260903080005 77 116 1.7 3.5 0.00 0.00 0.00 41 1019.0
20260903074504 76 121 0.9 2.6 0.00 0.00 0.00 40 1019.0
20260903073003 75 118 0.9 2.6 0.00 0.00 0.00 40 1018.9
20260903071503 74 119 0.0 2.6 0.00 0.00 0.00 41 1018.8
20260903070105 73 102 0.0 0.9 0.00 0.00 0.00 40 1018.7
20260903064558 72 109 0.0 1.7 0.00 0.00 0.00 41 1018.5
20260903063100 0 0.0 0.0 0.00 0.00 0.00 1018.5
20260903061612 0 0.0 0.0 0.00 0.00 0.00 1018.3
20260903060046 0 0.0 0.0 0.00 0.00 0.00 1018.2
20260903054541 0 0.0 0.0 0.00 0.00 0.00 1018.1
20260903053038 0 0.0 0.0 0.00 0.00 0.00 1018.0
20260903051534 0 0.0 0.0 0.00 0.00 0.00 1018.1
20260903050032 0 134 0.0 0.9 0.00 0.00 0.00 1018.1
20260903044527 68 248 0.0 1.7 0.00 0.00 0.00 42 1018.0
20260903043025 68 147 0.0 0.9 0.00 0.00 0.00 42 1017.9
20260903041531 69 89 0.0 0.9 0.00 0.00 0.00 41 1017.7
20260903040022 69 96 0.0 0.0 0.00 0.00 0.00 41 1017.7
20260903034525 71 96 0.0 4.3 0.00 0.00 0.00 39 1017.6
20260903033035 71 99 0.0 4.3 0.00 0.00 0.00 38 1017.7
20260903031517 72 136 0.0 2.6 0.00 0.00 0.00 37 1017.6
20260903030016 72 108 0.0 0.9 0.00 0.00 0.00 37 1017.6
20260903024516 70 82 0.0 0.0 0.00 0.00 0.00 38 1017.6
20260903023015 70 82 0.0 0.0 0.00 0.00 0.00 38 1017.7
20260903021514 71 82 0.0 0.0 0.00 0.00 0.00 38 1017.4
20260903020014 70 82 0.0 0.0 0.00 0.00 0.00 39 1017.5
20260903014516 70 82 0.0 0.0 0.00 0.00 0.00 38 1017.5
20260903013012 70 82 0.0 0.0 0.00 0.00 0.00 39 1017.4
20260903011511 70 82 0.0 0.0 0.00 0.00 0.00 38 1017.4
20260903010011 72 82 0.0 0.0 0.00 0.00 0.00 37 1017.5
20260903004511 73 82 0.0 0.0 0.00 0.00 0.00 36 1017.4
20260903003008 71 82 0.0 0.9 0.00 0.00 0.00 39 1017.5
20260903001506 70 234 0.0 0.0 0.00 0.00 0.00 44 1017.5
20260903000005 71 234 0.0 0.0 0.00 0.00 0.00 45 1017.5
20260902234505 71 234 0.0 0.0 0.00 0.00 0.00 45 1017.4
20260902233106 71 248 0.0 0.0 0.00 0.00 0.00 44 1017.2
20260902231607 72 248 0.0 0.0 0.00 0.00 0.00 44 1017.2
20260902230054 73 248 0.0 0.0 0.00 0.00 0.00 40 1017.2
20260902224603 74 248 0.0 0.0 0.00 0.00 0.00 40 1017.0
20260902223049 74 239 0.0 0.9 0.00 0.00 0.00 39 1017.0
20260902221546 76 139 0.0 0.0 0.00 0.00 0.00 38 1016.9
20260902220045 77 120 0.9 7.0 0.00 0.00 0.00 36 1016.9
20260902214541 79 313 0.0 0.0 0.00 0.00 0.00 35 1016.7
20260902213043 79 321 0.0 0.9 0.00 0.00 0.00 36 1016.7
20260902211545 79 298 0.0 0.0 0.00 0.00 0.00 36 1016.7
20260902210046 80 298 0.0 0.0 0.00 0.00 0.00 36 1016.6
20260902204542 81 298 0.0 0.0 0.00 0.00 0.00 34 1016.7
20260902203048 82 298 0.0 0.0 0.00 0.00 0.00 34 1016.6
20260902201544 82 321 0.0 2.6 0.00 0.00 0.00 33 1016.5
20260902200051 83 226 0.0 0.0 0.00 0.00 0.00 32 1016.4
20260902194538 84 226 0.0 0.9 0.00 0.00 0.00 30 1016.1
20260902193035 84 225 0.0 0.9 0.00 0.00 0.00 31 1015.8
20260902191546 86 222 0.0 0.9 0.00 0.00 0.00 29 1015.6
20260902190039 87 220 0.0 0.9 0.00 0.00 0.00 28 1015.4
20260902184545 89 220 0.0 1.7 0.00 0.00 0.00 27 1015.1
20260902183032 91 278 0.0 1.7 0.00 0.00 0.00 27 1015.0